APG344 RPVR-RPLL

Flight info

Callsign APG344
Flight time 0h 44m
Altitude 24000
Route MINOR3A MINOR B473 LAIYA LAIYA7R
Aircraft A320/M-SDE3FGHIRWY/LB1

Departure

Time 2026-05-04 06:55
Airport Roxas Airport (RPVR)

Arrival

Time 2026-05-04 07:40
Airport Ninoy Aquino International Airport (RPLL)
Time Latitude Longitude Altitude Speed Heading
2026-05-04 06:37 11.60086 122.74911 8 ft 0 kts 256°
2026-05-04 06:50 11.60140 122.74932 8 ft 0 kts 146°
2026-05-04 06:52 11.60120 122.74946 9 ft 8 kts 145°
2026-05-04 06:52 11.60092 122.75000 8 ft 12 kts 86°
2026-05-04 06:52 11.60074 122.75080 10 ft 15 kts 135°
2026-05-04 06:52 11.59974 122.75152 11 ft 21 kts 143°
2026-05-04 06:53 11.59837 122.75250 11 ft 27 kts 146°
2026-05-04 06:53 11.59677 122.75364 13 ft 26 kts 146°
2026-05-04 06:53 11.59523 122.75472 9 ft 28 kts 144°
2026-05-04 06:53 11.59366 122.75585 7 ft 26 kts 144°
2026-05-04 06:54 11.59232 122.75683 6 ft 20 kts 140°
2026-05-04 06:54 11.59158 122.75745 7 ft 7 kts 169°
2026-05-04 06:54 11.59158 122.75729 7 ft 3 kts 340°
2026-05-04 06:54 11.59193 122.75709 6 ft 13 kts 326°
2026-05-04 06:55 11.59479 122.75507 9 ft 88 kts 324°
2026-05-04 06:55 11.60162 122.75022 10 ft 148 kts 324°
2026-05-04 06:55 11.61038 122.74383 512 ft 154 kts 327°
2026-05-04 06:55 11.61919 122.73775 1225 ft 153 kts 331°
2026-05-04 06:56 11.62846 122.73156 1662 ft 169 kts 331°
2026-05-04 06:57 11.72632 122.66610 5478 ft 281 kts 328°
2026-05-04 06:58 11.74274 122.65509 6377 ft 283 kts 328°
2026-05-04 06:58 11.75926 122.64400 7220 ft 286 kts 328°
2026-05-04 06:58 11.77596 122.63276 8051 ft 289 kts 328°
2026-05-04 06:58 11.79284 122.62144 8873 ft 292 kts 328°
2026-05-04 06:59 11.80994 122.60999 9695 ft 295 kts 327°
2026-05-04 06:59 11.82732 122.59834 10261 ft 307 kts 327°
2026-05-04 06:59 11.84585 122.58593 10483 ft 330 kts 327°
2026-05-04 06:59 11.86551 122.57276 10879 ft 344 kts 327°
2026-05-04 07:01 12.01289 122.47378 15099 ft 377 kts 328°
2026-05-04 07:01 12.03486 122.45901 15671 ft 380 kts 328°
2026-05-04 07:02 12.05704 122.44411 16239 ft 383 kts 328°
2026-05-04 07:02 12.07941 122.42907 16801 ft 386 kts 328°
2026-05-04 07:02 12.10192 122.41391 17359 ft 389 kts 328°
2026-05-04 07:02 12.12438 122.39876 17906 ft 392 kts 328°
2026-05-04 07:03 12.14756 122.38313 18420 ft 396 kts 328°
2026-05-04 07:03 12.17064 122.36761 18905 ft 398 kts 328°
2026-05-04 07:03 12.19358 122.35221 19392 ft 401 kts 328°
2026-05-04 07:03 12.21699 122.33648 19880 ft 404 kts 327°
2026-05-04 07:04 12.24052 122.32066 20377 ft 406 kts 327°
2026-05-04 07:04 12.26421 122.30471 20865 ft 409 kts 327°
2026-05-04 07:04 12.28808 122.28861 21352 ft 412 kts 327°
2026-05-04 07:04 12.31208 122.27243 21837 ft 415 kts 327°
2026-05-04 07:05 12.33627 122.25613 22342 ft 417 kts 327°
2026-05-04 07:05 12.36062 122.23974 22817 ft 420 kts 327°
2026-05-04 07:05 12.38508 122.22317 23272 ft 423 kts 327°
2026-05-04 07:05 12.40954 122.20631 23685 ft 426 kts 326°
2026-05-04 07:06 12.45848 122.17209 23881 ft 421 kts 326°
2026-05-04 07:06 12.48256 122.15525 23890 ft 418 kts 326°
2026-05-04 07:06 12.50651 122.13854 23890 ft 417 kts 326°
2026-05-04 07:07 12.53046 122.12186 23879 ft 415 kts 326°
2026-05-04 07:08 12.68820 122.01236 23886 ft 416 kts 326°
2026-05-04 07:09 12.71210 121.99570 23893 ft 416 kts 326°
2026-05-04 07:09 12.73602 121.97903 23893 ft 416 kts 326°
2026-05-04 07:09 12.75997 121.96236 23889 ft 416 kts 326°
2026-05-04 07:09 12.78384 121.94575 23890 ft 415 kts 326°
2026-05-04 07:10 12.80738 121.92937 23885 ft 415 kts 326°
2026-05-04 07:10 12.83124 121.91276 23888 ft 415 kts 326°
2026-05-04 07:12 12.99835 121.79615 23879 ft 414 kts 326°
2026-05-04 07:12 13.02189 121.77975 23878 ft 414 kts 326°
2026-05-04 07:12 13.04567 121.76315 23880 ft 414 kts 326°
2026-05-04 07:12 13.06944 121.74652 23884 ft 413 kts 326°
2026-05-04 07:13 13.09320 121.72990 23889 ft 413 kts 326°
2026-05-04 07:13 13.11698 121.71325 23884 ft 413 kts 326°
2026-05-04 07:13 13.14078 121.69661 23888 ft 413 kts 326°
2026-05-04 07:14 13.23595 121.63015 23890 ft 413 kts 326°
2026-05-04 07:14 13.25968 121.61353 23889 ft 413 kts 326°
2026-05-04 07:15 13.28342 121.59687 23892 ft 413 kts 326°
2026-05-04 07:15 13.30717 121.58022 23890 ft 413 kts 326°
2026-05-04 07:15 13.33092 121.56361 23890 ft 413 kts 326°
2026-05-04 07:15 13.35465 121.54702 23886 ft 413 kts 326°
2026-05-04 07:16 13.37844 121.53036 23888 ft 413 kts 326°
2026-05-04 07:16 13.40186 121.51392 23890 ft 413 kts 326°
2026-05-04 07:16 13.42554 121.49732 23895 ft 413 kts 326°
2026-05-04 07:16 13.44731 121.47819 23891 ft 412 kts 311°
2026-05-04 07:17 13.46491 121.45498 23896 ft 412 kts 307°
2026-05-04 07:17 13.48207 121.43143 23896 ft 412 kts 307°
2026-05-04 07:17 13.49919 121.40779 23895 ft 412 kts 307°
2026-05-04 07:17 13.51622 121.38417 23895 ft 412 kts 307°
2026-05-04 07:18 13.53328 121.36046 23891 ft 412 kts 307°
2026-05-04 07:18 13.55036 121.33673 23890 ft 412 kts 307°
2026-05-04 07:18 13.56744 121.31308 23891 ft 412 kts 307°
2026-05-04 07:18 13.58454 121.28944 23885 ft 412 kts 307°
2026-05-04 07:19 13.60164 121.26583 23887 ft 412 kts 307°
2026-05-04 07:19 13.61880 121.24214 23886 ft 412 kts 307°
2026-05-04 07:19 13.63593 121.21849 23875 ft 413 kts 307°
2026-05-04 07:19 13.65308 121.19480 23880 ft 413 kts 307°
2026-05-04 07:20 13.67024 121.17109 23877 ft 413 kts 307°
2026-05-04 07:20 13.68737 121.14738 23869 ft 413 kts 307°
2026-05-04 07:20 13.70452 121.12361 23875 ft 413 kts 307°
2026-05-04 07:20 13.72161 121.09986 23870 ft 413 kts 307°
2026-05-04 07:22 13.83748 120.93925 21108 ft 391 kts 307°
2026-05-04 07:22 13.85364 120.91681 20603 ft 390 kts 307°
2026-05-04 07:23 13.86976 120.89444 20089 ft 389 kts 307°
2026-05-04 07:23 13.88586 120.87211 19592 ft 388 kts 307°
2026-05-04 07:23 13.90195 120.84980 19072 ft 388 kts 307°
2026-05-04 07:23 13.91788 120.82768 18563 ft 382 kts 307°
2026-05-04 07:24 13.91796 120.82757 18561 ft 382 kts 307°
2026-05-04 07:25 13.93407 120.80542 17842 ft 386 kts 307°
2026-05-04 07:26 14.04196 120.65486 14670 ft 357 kts 308°
2026-05-04 07:27 14.05661 120.63448 14212 ft 352 kts 307°
2026-05-04 07:27 14.07120 120.61422 13751 ft 353 kts 308°
2026-05-04 07:27 14.08580 120.59392 13259 ft 352 kts 308°
2026-05-04 07:27 14.10202 120.57523 12796 ft 348 kts 320°
2026-05-04 07:28 14.12159 120.56082 12302 ft 345 kts 332°
2026-05-04 07:28 14.14240 120.54857 11805 ft 344 kts 332°
2026-05-04 07:28 14.16315 120.53636 11308 ft 342 kts 333°
2026-05-04 07:28 14.18376 120.52519 10916 ft 329 kts 342°
2026-05-04 07:29 14.20551 120.52170 10494 ft 314 kts
2026-05-04 07:29 14.22586 120.52775 10193 ft 297 kts 31°
2026-05-04 07:29 14.24141 120.54078 9934 ft 283 kts 52°
2026-05-04 07:29 14.25180 120.55790 9820 ft 283 kts 60°
2026-05-04 07:30 14.26169 120.57564 9289 ft 285 kts 60°
2026-05-04 07:30 14.27143 120.59314 8646 ft 279 kts 60°
2026-05-04 07:30 14.28106 120.61044 7963 ft 276 kts 60°
2026-05-04 07:30 14.29059 120.62756 7299 ft 274 kts 61°
2026-05-04 07:31 14.29981 120.64406 7102 ft 255 kts 61°
2026-05-04 07:31 14.30834 120.65931 7043 ft 236 kts 61°
2026-05-04 07:33 14.35722 120.74709 5483 ft 191 kts 62°
2026-05-04 07:33 14.36379 120.75897 5188 ft 191 kts 62°
2026-05-04 07:33 14.37036 120.77083 4898 ft 190 kts 62°
2026-05-04 07:33 14.37690 120.78265 4603 ft 189 kts 63°
2026-05-04 07:34 14.38346 120.79446 4301 ft 189 kts 63°
2026-05-04 07:34 14.38997 120.80614 4020 ft 186 kts 62°
2026-05-04 07:34 14.39638 120.81765 3729 ft 185 kts 62°
2026-05-04 07:34 14.40278 120.82917 3448 ft 186 kts 62°
2026-05-04 07:35 14.40918 120.84070 3158 ft 184 kts 63°
2026-05-04 07:35 14.41549 120.85203 2875 ft 181 kts 62°
2026-05-04 07:35 14.42157 120.86298 2596 ft 170 kts 62°
2026-05-04 07:35 14.42729 120.87328 2337 ft 160 kts 63°
2026-05-04 07:36 14.43260 120.88278 2110 ft 146 kts 63°
2026-05-04 07:36 14.43749 120.89154 2007 ft 138 kts 63°
2026-05-04 07:38 14.47098 120.95189 1210 ft 138 kts 62°
2026-05-04 07:38 14.47575 120.96052 1029 ft 138 kts 62°
2026-05-04 07:38 14.48047 120.96907 819 ft 137 kts 61°
2026-05-04 07:38 14.48511 120.97741 626 ft 134 kts 64°
2026-05-04 07:39 14.48983 120.98583 405 ft 135 kts 63°
2026-05-04 07:39 14.49457 120.99427 281 ft 137 kts 64°
2026-05-04 07:39 14.49930 121.00265 94 ft 135 kts 64°
2026-05-04 07:39 14.50347 121.01025 63 ft 98 kts 59°
2026-05-04 07:40 14.50605 121.01483 66 ft 51 kts 60°
2026-05-04 07:40 14.50711 121.01660 61 ft 15 kts 51°
2026-05-04 07:40 14.50778 121.01729 66 ft 14 kts 39°
2026-05-04 07:40 14.50848 121.01782 68 ft 9 kts 27°
2026-05-04 07:41 14.50899 121.01773 61 ft 8 kts 320°
2026-05-04 07:41 14.50969 121.01732 63 ft 14 kts 12°
2026-05-04 07:41 14.51031 121.01820 66 ft 19 kts 60°
2026-05-04 07:41 14.51121 121.01830 69 ft 20 kts 314°
2026-05-04 07:42 14.51237 121.01711 68 ft 25 kts 315°
2026-05-04 07:42 14.51362 121.01583 69 ft 19 kts 315°
2026-05-04 07:42 14.51454 121.01583 65 ft 15 kts 339°
2026-05-04 07:42 14.51556 121.01487 66 ft 21 kts 315°
2026-05-04 07:43 14.51637 121.01406 65 ft 6 kts 323°
2026-05-04 07:43 14.51681 121.01440 63 ft 8 kts 47°
2026-05-04 07:43 14.51709 121.01469 67 ft 4 kts 44°
2026-05-04 07:43 14.51711 121.01471 67 ft 0 kts 44°